• Join FlightAware (Why Join?)
  • Login
  • US Flag 
11:36PM EDT


 

Airport Tracker/Info


-or-


 

Live Flight TrackerFlight Track Log ✈ EGF3994 ✈ 02-Jun-2013 ✈ KORD - KDAY

Flight Track Log - Related Links

Times and Time Zones

All times are in EDT time to prevent confusion due to time zone crossing. See the EGF3994 flight status page for this flight to view local times or setup timezone preferences in your user account.

Time Position Orientation Groundspeed Altitude Reporting Facility
EDT Latitude Longitude Course Direction KTS MPH feet Rate Location/Type
07:41PM 41.9167 -87.8833 90° East 185 213 2,900  Level Chicago TRACON
07:42PM 41.8942 -87.8619 145° Southeast 190 219 3,700 1,800 Climbing Chicago Center
07:43PM 41.9614 -87.4805 98° East  Level FlightAware Approximate
07:43PM 41.8472 -87.8033 137° Southeast 211 243 5,900  Level Chicago Center
07:44PM 41.9482 -87.3416 95° East  Level FlightAware Approximate
07:44PM 41.8617 -87.6856 81° East 271 312 8,300  Level Chicago Center
07:45PM 41.9383 -87.2023 95° East  Level FlightAware Approximate
07:45PM 41.8761 -87.5792 80° East 286 329 10,300  Level Chicago Center
07:46PM 41.9333 -87.0627 90° East  Level FlightAware Approximate
07:46PM 41.8908 -87.4672 80° East 301 346 12,200  Level Chicago Center
07:47PM 41.9064 -87.3489 80° East 324 373 13,800 1,200 Climbing Chicago Center
07:48PM 41.9186 -87.2200 83° East 347 399 14,800 900 Climbing Chicago Center
07:49PM 41.9028 -87.0786 99° East 383 441 15,700 1,020 Climbing Chicago Center
07:50PM 41.8847 -86.9042 98° East 395 455 17,000 1,080 Climbing Chicago Center
07:51PM 41.8725 -86.7567 96° East 399 459 18,000 960 Climbing Chicago Center
07:52PM 41.8586 -86.6142 97° East 408 470 19,000 960 Climbing Chicago Center
07:53PM 41.8428 -86.4608 98° East 415 478 20,100 1,140 Climbing Chicago Center
07:54PM 41.8247 -86.2722 97° East 426 490 21,400 1,140 Climbing Chicago Center
07:55PM 41.8086 -86.1119 98° East 434 499 22,500 720 Climbing Chicago Center
07:56PM 41.7922 -85.9486 98° East 442 509 23,000 240 Climbing Chicago Center
07:57PM 41.7419 -85.7958 114° Southeast 467 537 23,000  Level Chicago Center
07:58PM 41.6353 -85.7039 147° Southeast 462 532 23,000  Level Chicago Center
07:59PM 41.5044 -85.6019 150° Southeast 464 534 23,000 -540 Level Chicago Center
08:00PM 41.4036 -85.5022 143° Southeast 467 537 22,000 -1,020 Descending Chicago Center
08:01PM 41.3172 -85.3828 134° Southeast 460 529 21,000 -960 Descending Chicago Center
08:02PM 41.2339 -85.2700 134° Southeast 440 506 20,100 -1,260 Descending Chicago Center
08:03PM 41.1511 -85.1600 135° Southeast 428 493 18,500 -1,740 Descending Chicago Center
08:04PM 41.0525 -85.0306 135° Southeast 421 484 16,600 -1,620 Descending Chicago Center
08:05PM 40.9719 -84.9239 135° Southeast 414 476 15,200 -780 Descending Chicago Center
08:07PM 40.8917 -84.8203 136° Southeast 408 470 15,000 -120 Descending Chicago Center
08:08PM 40.8131 -84.7172 135° Southeast 402 463 15,000 -60 Level Chicago Center
08:09PM 40.7342 -84.6153 136° Southeast 399 459 14,900 -720 Descending Chicago Center
08:09PM 40.6839 -84.5514 136° Southeast 400 460 13,900 -1,740 Descending Indianapolis Center
08:10PM 40.6075 -84.4511 135° Southeast 386 444 12,300 -1,320 Descending Indianapolis Center
08:11PM 40.5158 -84.3356 136° Southeast 378 435 11,100 -600 Descending Indianapolis Center
08:12PM 40.4361 -84.2564 143° Southeast 361 415 11,000 -360 Descending Indianapolis Center
08:13PM 40.3611 -84.2281 164° South 343 395 10,500 -1,200 Descending Indianapolis Center
08:14PM 40.2822 -84.1975 164° South 301 346 8,700 -1,980 Descending Indianapolis Center
08:15PM 40.2078 -84.1725 166° South 282 325 6,500 -2,340 Descending Indianapolis Center
08:16PM 40.1372 -84.1506 167° South 269 310 4,000 -2,460 Descending Indianapolis Center